{"data":{"norad_id":67276,"epoch":"2026-09-20T13:00:51.308928Z","epoch_age_seconds":99410,"freshness":"FRESH","line1":"1 67276U 25313AE  26263.54226052  .00004270  00000+0  18050-3 0  9996","line2":"2 67276  97.3824 336.5522 0014203  38.0363 322.1875 15.23671244 40469","mean_motion":15.23671244,"eccentricity":0.0014203,"inclination_deg":97.3824,"raan_deg":336.5522,"arg_perigee_deg":38.0363,"mean_anomaly_deg":322.1875,"bstar":0.0001805,"rev_number":4046,"period_min":94.508576287077,"perigee_km":485.01673012531,"apogee_km":504.53993341674,"semimajor_km":6872.915331771,"source":"CELESTRAK","updated_at":"2026-09-21T09:00:16.545308Z"}}